Opelousas St Landry Parish Ai, LA

10:40 AM CDT on September 25, 2017 (GMT -0500)
Saint Landry Parish-Ahart

Weather History for KOPL - April, 2014

Change the Weather History Date:

Thursday, April 3, 2014

  Actual Average (KLFT) Record (KLFT)
Temperature  
Mean Temperature 73 °F -  
Max Temperature 79 °F 75 °F 88 °F (1939)
Min Temperature 67 °F 57 °F 33 °F (1915)
Cooling Degree Days 8    
Growing Degree Days 23 (Base 50)    
Moisture  
Dew Point 68 °F    
Average Humidity 83    
Maximum Humidity 97    
Minimum Humidity 62    
Precipitation  
Precipitation 0.00 in - - ()
Sea Level Pressure  
Sea Level Pressure 29.91 in    
Wind  
Wind Speed 10 mph (SSE)    
Max Wind Speed 20 mph    
Max Gust Speed 29 mph    
Visibility 10 miles    
Events Rain    
Averages and records for this station are not official NWS values.
T = Trace of Precipitation, MM = Missing Value Source: NWS Daily Summary

Daily Weather History Graph

Daily Weather History Graph

Search for Another Location

Airport or City:

Trip Planner

Search our weather history database for the weather conditions in past years. The results will help you decide how hot, cold, wet, or windy it might be!

Date:

Astronomy

Apr. 03, 2014 Rise Set
Actual Time 6:55 AM CDT 7:28 PM CDT
Civil Twilight 6:30 AM CDT 7:52 PM CDT
Nautical Twilight 6:02 AM CDT 8:21 PM CDT
Astronomical Twilight 5:33 AM CDT 8:50 PM CDT
Moon 9:37 AM CDT (4/3) 11:34 PM CDT (4/3)
Length of Visible Light 13h 22m
Length of Day
12h 33m
Waxing Crescent, 17% of the Moon is Illuminated
Apr 3
Waxing Crescent
Apr 7
First Quarter
Apr 15
Full
Apr 22
Last Quarter
Apr 29
New

Hourly Weather History & Observations

Time (CDT) Temp. Dew Point Humidity Pressure Visibility Wind Dir Wind Speed Gust Speed Precip Events Conditions
12:15 AM 71.2 °F 66.7 °F 86% 29.96 in 10.0 mi SSE 6.9 mph - N/A   Overcast
12:35 AM 71.2 °F 67.1 °F 87% 29.96 in 10.0 mi SSE 9.2 mph - N/A   Overcast
12:55 AM 71.2 °F 67.1 °F 87% 29.96 in 10.0 mi SSE 6.9 mph - N/A   Overcast
1:15 AM 71.1 °F 67.1 °F 87% 29.95 in 10.0 mi SSE 6.9 mph - N/A   Overcast
1:35 AM 70.9 °F 67.3 °F 88% 29.95 in 10.0 mi SSE 5.8 mph - N/A   Overcast
1:55 AM 70.9 °F 67.5 °F 89% 29.95 in 10.0 mi SSE 4.6 mph - N/A   Overcast
2:15 AM 70.9 °F 67.6 °F 89% 29.95 in 10.0 mi SSE 4.6 mph - N/A   Overcast
2:35 AM 70.9 °F 68.0 °F 91% 29.95 in 10.0 mi South 5.8 mph - N/A   Overcast
2:55 AM 71.6 °F 68.0 °F 88% 29.94 in 10.0 mi South 9.2 mph - N/A   Overcast
3:15 AM 72.0 °F 68.2 °F 88% 29.93 in 10.0 mi South 11.5 mph 16.1 mph N/A   Overcast
3:35 AM 72.0 °F 68.2 °F 88% 29.92 in 10.0 mi SSE 12.7 mph 16.1 mph N/A   Overcast
3:55 AM 72.0 °F 68.2 °F 88% 29.93 in 10.0 mi South 9.2 mph - N/A   Overcast
4:15 AM 72.0 °F 68.2 °F 88% 29.93 in 10.0 mi South 12.7 mph 19.6 mph N/A   Overcast
4:35 AM 71.8 °F 68.2 °F 88% 29.92 in 10.0 mi South 9.2 mph 17.3 mph N/A   Overcast
4:55 AM 71.6 °F 68.2 °F 89% 29.92 in 10.0 mi South 11.5 mph 18.4 mph N/A   Overcast
5:15 AM 71.6 °F 68.0 °F 88% 29.92 in 10.0 mi South 12.7 mph 20.7 mph N/A   Overcast
5:35 AM 71.1 °F 67.5 °F 88% 29.92 in 10.0 mi South 10.4 mph 18.4 mph N/A   Overcast
5:55 AM 70.2 °F 67.1 °F 90% 29.92 in 10.0 mi SSE 11.5 mph 18.4 mph N/A   Overcast
6:15 AM 69.8 °F 67.1 °F 91% 29.92 in 10.0 mi South 10.4 mph 16.1 mph N/A   Scattered Clouds
6:35 AM 69.1 °F 66.6 °F 92% 29.92 in 10.0 mi South 4.6 mph - N/A   Scattered Clouds
6:55 AM 68.4 °F 66.4 °F 93% 29.93 in 7.0 mi South 4.6 mph - N/A   Scattered Clouds
7:15 AM 67.6 °F 66.2 °F 95% 29.93 in 7.0 mi SSE 5.8 mph - N/A   Mostly Cloudy
7:35 AM 68.2 °F 66.7 °F 95% 29.93 in 7.0 mi SSE 5.8 mph - N/A   Scattered Clouds
7:55 AM 68.7 °F 67.1 °F 95% 29.93 in 10.0 mi SSE 8.1 mph - N/A   Scattered Clouds
8:15 AM 70.0 °F 67.3 °F 91% 29.93 in 7.0 mi SSE 10.4 mph - N/A   Mostly Cloudy
8:35 AM 70.9 °F 67.5 °F 89% 29.93 in 10.0 mi SSE 11.5 mph 19.6 mph N/A   Overcast
8:55 AM 71.8 °F 67.6 °F 87% 29.93 in 10.0 mi SSE 15.0 mph 19.6 mph N/A   Overcast
9:15 AM 73.0 °F 68.0 °F 84% 29.93 in 10.0 mi SSE 13.8 mph 19.6 mph N/A   Overcast
9:35 AM 75.0 °F 68.2 °F 79% 29.93 in 10.0 mi South 13.8 mph 24.2 mph N/A   Overcast
9:55 AM 74.5 °F 67.5 °F 79% 29.93 in 10.0 mi SSE 12.7 mph 26.5 mph N/A   Overcast
10:15 AM 74.3 °F 66.4 °F 76% 29.93 in 10.0 mi South 17.3 mph 26.5 mph N/A   Mostly Cloudy
10:35 AM 74.8 °F 66.4 °F 75% 29.94 in 10.0 mi South 13.8 mph 26.5 mph N/A   Scattered Clouds
10:55 AM 76.3 °F 66.6 °F 72% 29.93 in 10.0 mi South 16.1 mph 28.8 mph N/A   Mostly Cloudy
11:15 AM 76.8 °F 66.6 °F 70% 29.93 in 10.0 mi South 19.6 mph 23.0 mph N/A   Scattered Clouds
11:35 AM 77.7 °F 67.1 °F 70% 29.92 in 10.0 mi South 12.7 mph 26.5 mph N/A   Scattered Clouds
11:55 AM 79.0 °F 65.5 °F 63% 29.92 in 10.0 mi South 16.1 mph 26.5 mph N/A   Scattered Clouds
12:15 PM 79.0 °F 64.9 °F 62% 29.92 in 10.0 mi South 12.7 mph 27.6 mph N/A   Scattered Clouds
12:35 PM 76.8 °F 65.8 °F 69% 29.93 in 10.0 mi South 12.7 mph 18.4 mph N/A   Scattered Clouds
1:15 PM 77.9 °F 68.5 °F 73% 29.91 in 10.0 mi South 13.8 mph 25.3 mph N/A   Overcast
1:35 PM 77.0 °F 68.2 °F 74% 29.90 in 10.0 mi South 16.1 mph 23.0 mph N/A   Overcast
1:55 PM 78.1 °F 68.9 °F 73% 29.89 in 10.0 mi South 17.3 mph 20.7 mph N/A   Mostly Cloudy
2:15 PM 79.2 °F 68.9 °F 71% 29.89 in 10.0 mi South 18.4 mph 25.3 mph N/A   Scattered Clouds
2:35 PM 78.1 °F 68.4 °F 72% 29.89 in 10.0 mi South 15.0 mph 23.0 mph N/A   Mostly Cloudy
2:55 PM 77.7 °F 68.0 °F 72% 29.88 in 10.0 mi South 13.8 mph 23.0 mph N/A   Overcast
3:15 PM 78.6 °F 68.9 °F 72% 29.88 in 10.0 mi South 16.1 mph 19.6 mph N/A   Mostly Cloudy
3:35 PM 77.4 °F 68.4 °F 74% 29.88 in 10.0 mi SSE 16.1 mph 21.9 mph N/A   Overcast
3:55 PM 77.0 °F 68.5 °F 75% 29.88 in 10.0 mi South 15.0 mph 25.3 mph N/A   Overcast
4:15 PM 76.3 °F 68.5 °F 77% 29.88 in 10.0 mi South 11.5 mph - N/A   Overcast
4:35 PM 76.3 °F 68.5 °F 77% 29.87 in 10.0 mi South 13.8 mph 20.7 mph N/A   Overcast
4:55 PM 76.3 °F 68.5 °F 77% 29.87 in 10.0 mi South 15.0 mph 18.4 mph N/A   Overcast
5:15 PM 75.4 °F 68.4 °F 79% 29.87 in 10.0 mi SSE 13.8 mph 20.7 mph N/A   Overcast
5:35 PM 75.4 °F 68.7 °F 80% 29.87 in 10.0 mi South 8.1 mph - N/A   Overcast
5:55 PM 75.4 °F 68.5 °F 79% 29.87 in 10.0 mi South 11.5 mph 19.6 mph N/A   Overcast
6:15 PM 75.2 °F 68.4 °F 79% 29.87 in 10.0 mi South 9.2 mph 16.1 mph N/A   Overcast
6:35 PM 74.8 °F 68.4 °F 80% 29.87 in 10.0 mi South 12.7 mph 19.6 mph N/A   Overcast
6:55 PM 74.5 °F 68.4 °F 81% 29.86 in 10.0 mi South 11.5 mph 19.6 mph N/A   Overcast
7:15 PM 74.5 °F 68.4 °F 81% 29.86 in 10.0 mi South 13.8 mph - N/A   Overcast
7:35 PM 74.3 °F 68.4 °F 82% 29.86 in 10.0 mi SSE 10.4 mph 18.4 mph N/A   Overcast
7:55 PM 73.9 °F 68.4 °F 83% 29.86 in 10.0 mi SSE 11.5 mph 16.1 mph N/A   Overcast
8:15 PM 73.6 °F 68.4 °F 84% 29.86 in 10.0 mi SSE 10.4 mph 17.3 mph N/A   Overcast
8:35 PM 73.4 °F 68.5 °F 85% 29.87 in 10.0 mi SSE 9.2 mph 17.3 mph N/A   Overcast
8:55 PM 73.4 °F 68.5 °F 85% 29.87 in 10.0 mi South 9.2 mph - N/A   Overcast
9:15 PM 73.0 °F 68.5 °F 86% 29.88 in 10.0 mi South 9.2 mph 16.1 mph N/A   Overcast
9:35 PM 72.5 °F 68.9 °F 88% 29.88 in 7.0 mi South 9.2 mph - N/A Rain Rain
11:15 PM 70.7 °F 69.8 °F 97% 29.88 in 7.0 mi South 8.1 mph - N/A   Overcast
11:35 PM 71.1 °F 69.8 °F 96% 29.89 in 10.0 mi South 3.5 mph - N/A   Overcast
11:55 PM 71.1 °F 69.6 °F 95% 29.88 in 7.0 mi South 4.6 mph - N/A   Overcast